COSMOS 1897 DEB

Satellite information

Favourite Embed

Satellite Type and Status

DEBRISIN ORBIT

Key statistics

Satellite COSMOS 1897 DEB at a glance.

Uptime

13851

Days in orbit

Revolutions

≈ 1.0

Per day

Orbit

OTHER

Other

Inclination

11.2

Latest

Satellite identification and parameters

Extended collection of information and parameters for COSMOS 1897 DEB.

Object identification

Identified? True

Debris? True

Object name: COSMOS 1897 DEB

International designator: 1987-096G

Object number (NORAD): 44572

Object ID (CCSDS): 44572

Country: COMMONWEALTH OF INDEPENDENT STATES (CIS)

Current information (Y/N): Y

RCS size: LARGE

Orbital parameters

Period: 1433.422 minutes

Inclination: 11.1942 deg

SMA: 42112.366 km

Apoapsis: 35842.061 km

Periapsis: 35626.4 km

RAAN: 327.8338 deg

Eccentricy: 0.00256054

Argument of periapsis: 278.7125 deg

Mean anomaly: 256.2705 deg

Mean motion: 1.00458874 rev/day

Mean motion (dot): -0.0000031 rev/day2

B* drag term: 0.0 1/REarth

Two-line elements (TLE)

Creation date: Oct. 28, 2025, 2:18 a.m.

Reference frame: TEME

Reference center: EARTH

Epoch: Oct. 27, 2025, 10:15 p.m. UTC

TLE line 0: 0 COSMOS 1897 DEB

TLE line 1: 1 44572U 87096G 25300.92747602 -.00000310 00000-0 00000-0 0 9994

TLE line 2: 2 44572 11.1942 327.8338 0025605 278.7125 256.2705 1.00458874 68655

Live tracking on map

Real-time ground track for satellite COSMOS 1897 DEB.

In-orbit conjunctions

A list of the most updated potential collisions computed for object COSMOS 1897 DEB.

Target Orbit TCA Probability of collision Miss distance Type
GORIZONT 30 OTHER 2025-04-07 14:35:37 TBA 718.0 (m) PAYLOAD

Associated space launch

Geostationary communications satellite

COSMOS 1897 DEB was lifted into orbit during the mission ‘Proton | Luch #2’, on board a Proton space rocket.

The launch took place on Nov. 26, 1987, 1:28 p.m. from 200/39 (200L).

For more information about the launch, click the button.

Launch to space Proton | Luch #2
Proton | Luch #2

Agency: N/A

Status: Launch Successful

Launch date: Nov. 26, 1987, 1:28 p.m. UTC

Rocket: Proton

Launch pad: 200/39 (200L)

Location: Baikonur Cosmodrome, Republic of Kazakhstan

...

Latest news about this satellite

There are no fresh news available about this satellite. Check back as we update our databases every day.


Newsletter sign-up

Weekly statistics, charts and insights to help you stay on top of the space industry.